Weather History for KI75 - October, 2013

Change the Weather History Date:

Tuesday, October 29, 2013

  Actual Average (KLWD) Record (KLWD)
Temperature  
Mean Temperature 47 °F 48 °F  
Max Temperature 54 °F 58 °F 79 °F (2004)
Min Temperature 40 °F 38 °F 22 °F (1980)
Degree Days  
Heating Degree Days 18 17  
Month to date heating degree days 349  
Since 1 July heating degree days 449  
Cooling Degree Days 0 0  
Month to date cooling degree days 11  
Year to date cooling degree days 944  
Moisture  
Dew Point 42 °F    
Average Humidity 82    
Maximum Humidity 95    
Minimum Humidity 71    
Precipitation  
Precipitation 0.00 in 0.11 in 1.62 in (1971)
Month to date precipitation 2.75  
Sea Level Pressure  
Sea Level Pressure 30.10 in    
Wind  
Wind Speed 9 mph (East)    
Max Wind Speed 13 mph    
Max Gust Speed 16 mph    
Visibility 8 miles    
Events Rain    
T = Trace of Precipitation, MM = Missing Value Source: NWS Daily Summary

Daily Weather History Graph

Daily Weather History Graph

Search for Another Location

Airport or City:

Trip Planner

Search our weather history database for the weather conditions in past years. The results will help you decide how hot, cold, wet, or windy it might be!

Date:

Astronomy

Oct. 29, 2013 Rise Set
Actual Time 7:42 AM CDT 6:13 PM CDT
Civil Twilight 7:14 AM CDT 6:42 PM CDT
Nautical Twilight 6:41 AM CDT 7:14 PM CDT
Astronomical Twilight 6:09 AM CDT 7:46 PM CDT
Moon 2:30 AM CDT (10/29) 3:30 PM CDT (10/29)
Length of Visible Light 11h 28m
Length of Day
10h 31m
Waning Crescent, 25% of the Moon is Illuminated
Oct 29
Waning Crescent
Nov 3
New
Nov 9
First Quarter
Nov 17
Full
Nov 25
Last Quarter

Hourly Weather History & Observations

Time (CDT) Temp. Windchill Dew Point Humidity Pressure Visibility Wind Dir Wind Speed Gust Speed Precip Events Conditions
12:15 AM 41.4 °F 35.7 °F 35.2 °F 79% 30.25 in 10.0 mi ENE 9.2 mph - N/A   Clear
12:35 AM 41.2 °F 36.6 °F 35.1 °F 79% 30.23 in 10.0 mi ENE 6.9 mph - N/A   Clear
12:55 AM 41.0 °F 35.2 °F 35.1 °F 79% 30.23 in 10.0 mi ENE 9.2 mph - N/A   Clear
1:15 AM 41.0 °F 34.7 °F 35.2 °F 80% 30.22 in 10.0 mi ENE 10.4 mph - N/A   Clear
1:35 AM 41.0 °F 34.7 °F 35.1 °F 79% 30.22 in 10.0 mi ENE 10.4 mph - N/A   Clear
1:55 AM 41.0 °F 34.7 °F 35.2 °F 80% 30.20 in 10.0 mi ENE 10.4 mph - N/A   Clear
2:15 AM 41.0 °F 35.2 °F 35.6 °F 81% 30.20 in 10.0 mi East 9.2 mph - N/A   Scattered Clouds
2:35 AM 41.0 °F 35.2 °F 35.6 °F 81% 30.20 in 10.0 mi ENE 9.2 mph - N/A   Overcast
2:55 AM 41.2 °F 35.0 °F 36.0 °F 82% 30.19 in 10.0 mi East 10.4 mph - N/A   Overcast
3:15 AM 41.5 °F 35.9 °F 36.0 °F 81% 30.19 in 10.0 mi ENE 9.2 mph - N/A   Overcast
3:35 AM 41.2 °F 36.0 °F 36.0 °F 82% 30.17 in 10.0 mi ENE 8.1 mph - N/A   Mostly Cloudy
3:55 AM 41.2 °F 35.5 °F 36.0 °F 82% 30.17 in 10.0 mi ENE 9.2 mph - N/A   Scattered Clouds
4:15 AM 41.0 °F 34.7 °F 36.0 °F 82% 30.16 in 10.0 mi ENE 10.4 mph - N/A   Scattered Clouds
4:35 AM 41.0 °F 35.2 °F 36.1 °F 83% 30.17 in 10.0 mi ENE 9.2 mph - N/A   Scattered Clouds
4:55 AM 41.0 °F 34.7 °F 36.1 °F 83% 30.16 in 10.0 mi ENE 10.4 mph - N/A   Light Drizzle
5:35 AM 40.5 °F 34.1 °F 36.5 °F 86% 30.16 in 10.0 mi ENE 10.4 mph - N/A   Mostly Cloudy
5:55 AM 41.0 °F 36.4 °F 36.7 °F 85% 30.18 in 10.0 mi East 6.9 mph - N/A   Overcast
6:15 AM 41.0 °F 36.4 °F 36.7 °F 85% 30.19 in 10.0 mi East 6.9 mph - N/A   Overcast
6:35 AM 41.0 °F 37.1 °F 36.9 °F 85% 30.19 in 10.0 mi East 5.8 mph - N/A   Overcast
6:55 AM 41.0 °F 36.4 °F 36.9 °F 85% 30.18 in 10.0 mi ENE 6.9 mph - N/A   Overcast
7:35 AM 41.0 °F 34.7 °F 36.7 °F 85% 30.15 in 10.0 mi East 10.4 mph - N/A   Scattered Clouds
7:55 AM 41.0 °F 35.2 °F 36.9 °F 85% 30.16 in 10.0 mi East 9.2 mph - N/A   Scattered Clouds
8:15 AM 41.2 °F 34.5 °F 36.9 °F 85% 30.15 in 10.0 mi East 11.5 mph - N/A   Overcast
8:35 AM 41.2 °F 34.5 °F 37.4 °F 86% 30.16 in 7.0 mi East 11.5 mph 16.1 mph N/A   Overcast
9:15 AM 41.9 °F 35.0 °F 37.8 °F 85% 30.16 in 7.0 mi East 12.7 mph - N/A Rain Light Rain
9:35 AM 42.6 °F 36.8 °F 38.5 °F 85% 30.14 in 7.0 mi East 10.4 mph - N/A   Overcast
9:55 AM 43.3 °F 38.6 °F 38.7 °F 84% 30.15 in 10.0 mi East 8.1 mph - N/A   Mostly Cloudy
10:15 AM 44.8 °F 40.4 °F 39.4 °F 81% 30.14 in 10.0 mi East 8.1 mph - N/A   Overcast
10:35 AM 45.7 °F 41.0 °F 39.6 °F 79% 30.14 in 10.0 mi East 9.2 mph - N/A   Overcast
10:55 AM 46.9 °F - 40.3 °F 78% 30.14 in 10.0 mi East 6.9 mph - N/A   Overcast
11:15 AM 48.0 °F - 40.6 °F 76% 30.14 in 10.0 mi East 9.2 mph - N/A   Overcast
11:35 AM 48.2 °F - 41.0 °F 76% 30.14 in 10.0 mi East 4.6 mph - N/A   Overcast
11:55 AM 49.1 °F - 41.4 °F 75% 30.13 in 10.0 mi East 5.8 mph - N/A   Overcast
12:15 PM 49.3 °F - 42.6 °F 78% 30.12 in 10.0 mi ESE 6.9 mph - N/A Rain Light Rain
12:35 PM 50.0 °F - 42.8 °F 76% 30.12 in 10.0 mi East 8.1 mph - N/A   Overcast
12:55 PM 50.7 °F - 43.0 °F 75% 30.10 in 10.0 mi East 8.1 mph - N/A   Overcast
1:15 PM 51.4 °F - 43.3 °F 74% 30.09 in 10.0 mi East 9.2 mph - N/A   Overcast
1:35 PM 52.2 °F - 44.2 °F 74% 30.07 in 10.0 mi ESE 8.1 mph - N/A   Overcast
1:55 PM 52.7 °F - 44.4 °F 73% 30.06 in 10.0 mi ESE 9.2 mph - N/A   Overcast
2:15 PM 54.5 °F - 45.1 °F 71% 30.05 in 7.0 mi ESE 9.2 mph - N/A   Overcast
2:35 PM 54.1 °F - 45.3 °F 72% 30.04 in 7.0 mi East 8.1 mph - N/A   Overcast
2:55 PM 54.9 °F - 45.7 °F 71% 30.04 in 7.0 mi ESE 9.2 mph - N/A   Overcast
3:15 PM 54.0 °F - 45.5 °F 73% 30.03 in 7.0 mi East 8.1 mph - N/A   Overcast
3:35 PM 54.1 °F - 45.5 °F 73% 30.02 in 7.0 mi East 8.1 mph - N/A   Overcast
3:55 PM 54.5 °F - 45.5 °F 72% 30.02 in 7.0 mi East 9.2 mph - N/A   Overcast
4:15 PM 54.3 °F - 45.5 °F 72% 30.02 in 7.0 mi East 9.2 mph - N/A   Overcast
4:35 PM 54.9 °F - 45.5 °F 71% 30.02 in 5.0 mi East 6.9 mph - N/A   Haze
4:55 PM 54.7 °F - 45.9 °F 72% 30.01 in 7.0 mi East 8.1 mph - N/A   Overcast
5:15 PM 54.5 °F - 45.7 °F 72% 30.01 in 5.0 mi East 6.9 mph - N/A   Haze
5:35 PM 54.5 °F - 45.9 °F 73% 30.00 in 7.0 mi East 6.9 mph - N/A   Overcast
5:55 PM 54.7 °F - 46.0 °F 73% 30.01 in 7.0 mi East 5.8 mph - N/A   Overcast
6:15 PM 54.7 °F - 46.9 °F 75% 30.01 in 7.0 mi East 6.9 mph - N/A   Overcast
6:35 PM 54.1 °F - 48.0 °F 80% 30.00 in 7.0 mi ESE 6.9 mph - N/A   Overcast
6:55 PM 53.6 °F - 49.1 °F 85% 30.01 in 7.0 mi East 6.9 mph - N/A   Overcast
7:15 PM 53.2 °F - 49.5 °F 87% 30.01 in 5.0 mi East 6.9 mph - N/A   Overcast
7:35 PM 53.1 °F - 50.0 °F 89% 30.01 in 5.0 mi East 8.1 mph - N/A   Overcast
7:55 PM 52.9 °F - 50.2 °F 91% 30.02 in 5.0 mi East 6.9 mph - N/A   Overcast
8:15 PM 52.9 °F - 50.2 °F 91% 30.02 in 4.0 mi East 8.1 mph - N/A   Overcast
8:35 PM 52.7 °F - 50.2 °F 91% 30.02 in 3.0 mi ESE 8.1 mph - N/A   Overcast
8:55 PM 52.7 °F - 50.2 °F 91% 30.01 in 3.0 mi ESE 8.1 mph - N/A   Overcast
9:15 PM 52.3 °F - 50.4 °F 93% 30.01 in 2.0 mi ESE 8.1 mph - N/A   Overcast
9:35 PM 52.0 °F - 50.2 °F 94% 30.01 in 2.0 mi East 9.2 mph - N/A   Overcast
9:55 PM 51.8 °F - 50.0 °F 94% 30.01 in 2.5 mi ESE 10.4 mph - N/A   Overcast
10:15 PM 51.4 °F - 50.0 °F 95% 30.01 in 1.5 mi ESE 10.4 mph - N/A   Overcast
10:35 PM 51.4 °F - 49.8 °F 94% 30.01 in 1.5 mi East 9.2 mph - N/A Rain Rain
10:55 PM 51.3 °F - 49.8 °F 95% 30.01 in 1.8 mi ESE 6.9 mph - N/A   Overcast
11:15 PM 51.3 °F - 50.0 °F 95% 30.01 in 2.5 mi ESE 8.1 mph - N/A   Overcast
11:35 PM 51.4 °F - 50.0 °F 95% 30.01 in 1.8 mi ESE 9.2 mph - N/A   Overcast
11:55 PM 51.4 °F - 50.0 °F 95% 30.00 in 1.8 mi ESE 6.9 mph - N/A   Overcast